nws-alerts: Checking more than four warning/county codes can delay the loading of your pages. You should use a cron job to get the data.
EllijayWeather Station Historical Data
Daily Summary for March 14, 2019 Units:  English    Metric   Both
Daily Weekly Monthly Yearly Custom
  High: Low: Average:
Temperature: 69.4 °F 56.1 °F 62 °F
Dew Point: 61.7 °F 38.8 °F 54.9 °F
Humidity: 98% 49% 78%
Wind Speed: 0.0mph 0.0mph 0mph
Wind Gust: 0.0mph - -
Wind- - North
Pressure: 30.18 in 30.00 in -
Precipitation: 0.76 in    
Historical Graphs
 
 
Tabular Data for March 14, 2019
Time Temperature Dew Point Pressure Wind Wind Speed Wind Gust Humidity Rainfall Rate (Hourly) solar
00:04 57.9 °F 38.8 °F 30.18 in Calm     49% 0.00 in meteobridge W/m2
00:09 57.9 °F 39.4 °F 30.18 in Calm     50% 0.00 in meteobridge W/m2
00:14 57.7 °F 39.7 °F 30.18 in Calm     51% 0.00 in meteobridge W/m2
00:19 57.7 °F 39.7 °F 30.18 in Calm     51% 0.00 in meteobridge W/m2
00:24 57.6 °F 39.6 °F 30.18 in Calm     51% 0.00 in meteobridge W/m2
00:29 57.6 °F 40.1 °F 30.18 in Calm     52% 0.00 in meteobridge W/m2
00:34 57.6 °F 40.6 °F 30.18 in Calm     53% 0.00 in meteobridge W/m2
00:39 57.6 °F 40.6 °F 30.17 in Calm     53% 0.00 in meteobridge W/m2
00:44 57.6 °F 41.0 °F 30.17 in Calm     54% 0.00 in meteobridge W/m2
00:49 57.6 °F 41.5 °F 30.17 in Calm     55% 0.00 in meteobridge W/m2
00:54 57.7 °F 41.7 °F 30.17 in Calm     55% 0.00 in meteobridge W/m2
00:59 57.7 °F 42.1 °F 30.17 in Calm     56% 0.00 in meteobridge W/m2
01:04 57.9 °F 41.9 °F 30.17 in Calm     55% 0.00 in meteobridge W/m2
01:09 57.7 °F 41.7 °F 30.17 in Calm     55% 0.00 in meteobridge W/m2
01:14 57.9 °F 41.4 °F 30.17 in Calm     54% 0.00 in meteobridge W/m2
01:19 57.9 °F 41.4 °F 30.18 in Calm     54% 0.00 in meteobridge W/m2
01:24 57.9 °F 41.4 °F 30.18 in Calm     54% 0.00 in meteobridge W/m2
01:29 57.9 °F 41.4 °F 30.17 in Calm     54% 0.00 in meteobridge W/m2
01:34 57.9 °F 41.4 °F 30.18 in Calm     54% 0.00 in meteobridge W/m2
01:39 58.1 °F 41.5 °F 30.18 in Calm     54% 0.00 in meteobridge W/m2
01:44 57.9 °F 41.9 °F 30.18 in Calm     55% 0.00 in meteobridge W/m2
01:49 57.9 °F 41.9 °F 30.18 in Calm     55% 0.00 in meteobridge W/m2
01:54 57.7 °F 41.7 °F 30.18 in Calm     55% 0.00 in meteobridge W/m2
01:59 57.6 °F 41.5 °F 30.18 in Calm     55% 0.00 in meteobridge W/m2
02:04 57.6 °F 41.5 °F 30.17 in Calm     55% 0.00 in meteobridge W/m2
02:09 57.4 °F 41.9 °F 30.17 in Calm     56% 0.00 in meteobridge W/m2
02:14 57.0 °F 41.9 °F 30.16 in Calm     57% 0.00 in meteobridge W/m2
02:19 56.8 °F 42.3 °F 30.16 in Calm     58% 0.00 in meteobridge W/m2
02:24 56.8 °F 42.6 °F 30.16 in Calm     59% 0.00 in meteobridge W/m2
02:29 56.7 °F 43.0 °F 30.16 in Calm     60% 0.00 in meteobridge W/m2
02:34 56.5 °F 43.2 °F 30.16 in Calm     61% 0.00 in meteobridge W/m2
02:39 56.5 °F 43.7 °F 30.16 in Calm     62% 0.00 in meteobridge W/m2
02:44 56.7 °F 44.2 °F 30.16 in Calm     63% 0.00 in meteobridge W/m2
02:49 56.7 °F 44.6 °F 30.16 in Calm     64% 0.00 in meteobridge W/m2
02:54 56.5 °F 44.8 °F 30.16 in Calm     65% 0.00 in meteobridge W/m2
02:59 56.5 °F 45.3 °F 30.16 in Calm     66% 0.00 in meteobridge W/m2
03:04 56.1 °F 45.3 °F 30.16 in Calm     67% 0.00 in meteobridge W/m2
03:09 56.3 °F 45.9 °F 30.16 in Calm     68% 0.00 in meteobridge W/m2
03:14 56.5 °F 46.8 °F 30.16 in Calm     70% 0.00 in meteobridge W/m2
03:19 56.5 °F 47.1 °F 30.16 in Calm     71% 0.00 in meteobridge W/m2
03:24 56.5 °F 47.1 °F 30.16 in Calm     71% 0.00 in meteobridge W/m2
03:29 56.7 °F 48.0 °F 30.16 in Calm     73% 0.00 in meteobridge W/m2
03:34 56.8 °F 48.2 °F 30.15 in Calm     73% 0.00 in meteobridge W/m2
03:39 56.8 °F 48.6 °F 30.16 in Calm     74% 0.00 in meteobridge W/m2
03:44 56.8 °F 48.9 °F 30.16 in Calm     75% 0.00 in meteobridge W/m2
03:49 56.8 °F 48.9 °F 30.16 in Calm     75% 0.00 in meteobridge W/m2
03:54 56.8 °F 49.3 °F 30.15 in Calm     76% 0.00 in meteobridge W/m2
03:59 57.0 °F 49.8 °F 30.15 in Calm     77% 0.00 in meteobridge W/m2
04:04 57.4 °F 50.2 °F 30.15 in Calm     77% 0.00 in meteobridge W/m2
04:09 57.4 °F 50.5 °F 30.16 in Calm     78% 0.00 in meteobridge W/m2
04:14 57.6 °F 50.7 °F 30.16 in Calm     78% 0.00 in meteobridge W/m2
04:19 57.6 °F 50.7 °F 30.16 in Calm     78% 0.00 in meteobridge W/m2
04:24 57.4 °F 50.9 °F 30.16 in Calm     79% 0.00 in meteobridge W/m2
04:29 57.4 °F 50.9 °F 30.16 in Calm     79% 0.00 in meteobridge W/m2
04:34 57.4 °F 51.3 °F 30.15 in Calm     80% 0.00 in meteobridge W/m2
04:39 57.6 °F 51.4 °F 30.15 in Calm     80% 0.00 in meteobridge W/m2
04:44 57.6 °F 51.4 °F 30.15 in Calm     80% 0.00 in meteobridge W/m2
04:49 57.6 °F 51.8 °F 30.15 in Calm     81% 0.00 in meteobridge W/m2
04:54 57.6 °F 51.8 °F 30.15 in Calm     81% 0.00 in meteobridge W/m2
04:59 57.6 °F 51.8 °F 30.14 in Calm     81% 0.00 in meteobridge W/m2
05:04 57.7 °F 52.3 °F 30.14 in Calm     82% 0.00 in meteobridge W/m2
05:09 57.7 °F 52.3 °F 30.13 in Calm     82% 0.00 in meteobridge W/m2
05:14 57.7 °F 52.3 °F 30.13 in Calm     82% 0.00 in meteobridge W/m2
05:19 57.7 °F 52.3 °F 30.13 in Calm     82% 0.00 in meteobridge W/m2
05:24 57.9 °F 52.5 °F 30.13 in Calm     82% 0.00 in meteobridge W/m2
05:29 57.9 °F 52.5 °F 30.14 in Calm     82% 0.00 in meteobridge W/m2
05:34 57.9 °F 52.5 °F 30.14 in Calm     82% 0.00 in meteobridge W/m2
05:39 58.1 °F 52.7 °F 30.14 in Calm     82% 0.00 in meteobridge W/m2
05:44 57.9 °F 52.7 °F 30.14 in Calm     83% 0.00 in meteobridge W/m2
05:49 57.9 °F 52.7 °F 30.14 in Calm     83% 0.00 in meteobridge W/m2
05:54 57.9 °F 52.7 °F 30.14 in Calm     83% 0.00 in meteobridge W/m2
05:59 57.9 °F 52.7 °F 30.14 in Calm     83% 0.00 in meteobridge W/m2
06:04 58.3 °F 53.4 °F 30.14 in Calm     84% 0.00 in meteobridge W/m2
06:09 58.6 °F 53.4 °F 30.14 in Calm     83% 0.00 in meteobridge W/m2
06:14 58.6 °F 53.4 °F 30.15 in Calm     83% 0.00 in meteobridge W/m2
06:19 58.5 °F 53.2 °F 30.15 in Calm     83% 0.00 in meteobridge W/m2
06:24 58.6 °F 53.4 °F 30.15 in Calm     83% 0.00 in meteobridge W/m2
06:29 58.8 °F 53.6 °F 30.15 in Calm     83% 0.00 in meteobridge W/m2
06:34 58.8 °F 53.6 °F 30.14 in Calm     83% 0.00 in meteobridge W/m2
06:39 59.0 °F 53.8 °F 30.14 in Calm     83% 0.00 in meteobridge W/m2
06:44 59.2 °F 53.6 °F 30.14 in Calm     82% 0.00 in meteobridge W/m2
06:49 59.2 °F 53.6 °F 30.14 in Calm     82% 0.00 in meteobridge W/m2
06:54 59.2 °F 53.6 °F 30.14 in Calm     82% 0.00 in meteobridge W/m2
06:59 59.2 °F 54.0 °F 30.14 in Calm     83% 0.00 in meteobridge W/m2
07:04 59.2 °F 54.0 °F 30.14 in Calm     83% 0.00 in meteobridge W/m2
07:09 59.2 °F 54.0 °F 30.13 in Calm     83% 0.00 in meteobridge W/m2
07:14 59.2 °F 54.0 °F 30.14 in Calm     83% 0.00 in meteobridge W/m2
07:19 59.2 °F 54.0 °F 30.13 in Calm     83% 0.00 in meteobridge W/m2
07:24 58.8 °F 53.6 °F 30.13 in Calm     83% 0.00 in meteobridge W/m2
07:29 58.6 °F 53.4 °F 30.13 in Calm     83% 0.00 in meteobridge W/m2
07:34 58.5 °F 53.6 °F 30.14 in Calm     84% 0.00 in meteobridge W/m2
07:39 58.3 °F 53.4 °F 30.14 in Calm     84% 0.00 in meteobridge W/m2
07:44 57.9 °F 53.4 °F 30.14 in Calm     85% 0.00 in meteobridge W/m2
07:49 57.9 °F 53.4 °F 30.14 in Calm     85% 0.00 in meteobridge W/m2
07:54 57.9 °F 53.4 °F 30.14 in Calm     85% 0.00 in meteobridge W/m2
07:59 57.9 °F 53.4 °F 30.15 in Calm     85% 0.00 in meteobridge W/m2
08:04 57.9 °F 53.4 °F 30.15 in Calm     85% 0.00 in meteobridge W/m2
08:09 57.9 °F 53.4 °F 30.16 in Calm     85% 0.00 in meteobridge W/m2
08:14 57.9 °F 53.8 °F 30.16 in Calm     86% 0.00 in meteobridge W/m2
08:19 58.1 °F 53.6 °F 30.16 in Calm     85% 0.00 in meteobridge W/m2
08:24 58.3 °F 53.8 °F 30.16 in Calm     85% 0.00 in meteobridge W/m2
08:29 58.3 °F 53.8 °F 30.17 in Calm     85% 0.00 in meteobridge W/m2
08:34 58.5 °F 54.0 °F 30.16 in Calm     85% 0.00 in meteobridge W/m2
08:39 58.5 °F 54.0 °F 30.15 in Calm     85% 0.00 in meteobridge W/m2
08:44 58.5 °F 54.0 °F 30.14 in Calm     85% 0.00 in meteobridge W/m2
08:49 58.5 °F 54.0 °F 30.14 in Calm     85% 0.00 in meteobridge W/m2
08:54 58.6 °F 54.1 °F 30.14 in Calm     85% 0.00 in meteobridge W/m2
08:59 58.6 °F 54.1 °F 30.14 in Calm     85% 0.00 in meteobridge W/m2
09:04 58.6 °F 54.1 °F 30.14 in Calm     85% 0.00 in meteobridge W/m2
09:09 58.8 °F 54.3 °F 30.14 in Calm     85% 0.00 in meteobridge W/m2
09:14 58.8 °F 54.3 °F 30.14 in Calm     85% 0.00 in meteobridge W/m2
09:19 58.8 °F 54.3 °F 30.14 in Calm     85% 0.00 in meteobridge W/m2
09:24 59.0 °F 54.5 °F 30.15 in Calm     85% 0.00 in meteobridge W/m2
09:29 59.2 °F 54.7 °F 30.15 in Calm     85% 0.00 in meteobridge W/m2
09:34 59.2 °F 54.7 °F 30.15 in Calm     85% 0.00 in meteobridge W/m2
09:39 59.4 °F 54.5 °F 30.15 in Calm     84% 0.00 in meteobridge W/m2
09:44 59.4 °F 54.5 °F 30.15 in Calm     84% 0.00 in meteobridge W/m2
09:49 59.5 °F 54.7 °F 30.15 in Calm     84% 0.00 in meteobridge W/m2
09:54 59.5 °F 54.7 °F 30.15 in Calm     84% 0.00 in meteobridge W/m2
09:59 59.5 °F 54.7 °F 30.15 in Calm     84% 0.00 in meteobridge W/m2
10:04 59.7 °F 54.9 °F 30.15 in Calm     84% 0.00 in meteobridge W/m2
10:09 59.7 °F 54.9 °F 30.15 in Calm     84% 0.00 in meteobridge W/m2
10:14 60.1 °F 54.9 °F 30.15 in Calm     83% 0.00 in meteobridge W/m2
10:19 60.1 °F 54.9 °F 30.14 in Calm     83% 0.00 in meteobridge W/m2
10:24 60.1 °F 54.9 °F 30.14 in Calm     83% 0.00 in meteobridge W/m2
10:29 60.3 °F 55.0 °F 30.15 in Calm     83% 0.00 in meteobridge W/m2
10:34 60.3 °F 55.0 °F 30.15 in Calm     83% 0.00 in meteobridge W/m2
10:39 60.4 °F 55.2 °F 30.14 in Calm     83% 0.00 in meteobridge W/m2
10:44 60.4 °F 55.2 °F 30.13 in Calm     83% 0.00 in meteobridge W/m2
10:49 60.6 °F 55.4 °F 30.13 in Calm     83% 0.00 in meteobridge W/m2
10:54 60.8 °F 55.2 °F 30.12 in Calm     82% 0.00 in meteobridge W/m2
10:59 61.2 °F 55.6 °F 30.11 in Calm     82% 0.00 in meteobridge W/m2
11:04 61.9 °F 55.9 °F 30.11 in Calm     81% 0.00 in meteobridge W/m2
11:09 62.4 °F 56.1 °F 30.11 in Calm     80% 0.00 in meteobridge W/m2
11:14 62.4 °F 56.1 °F 30.11 in Calm     80% 0.00 in meteobridge W/m2
11:19 62.8 °F 56.5 °F 30.11 in Calm     80% 0.00 in meteobridge W/m2
11:24 63.0 °F 56.3 °F 30.11 in Calm     79% 0.00 in meteobridge W/m2
11:29 63.3 °F 56.7 °F 30.11 in Calm     79% 0.00 in meteobridge W/m2
11:34 64.0 °F 57.0 °F 30.11 in Calm     78% 0.00 in meteobridge W/m2
11:39 64.6 °F 57.2 °F 30.11 in Calm     77% 0.00 in meteobridge W/m2
11:44 64.8 °F 56.7 °F 30.11 in Calm     75% 0.00 in meteobridge W/m2
11:49 64.9 °F 57.2 °F 30.11 in Calm     76% 0.00 in meteobridge W/m2
11:54 65.5 °F 57.4 °F 30.11 in Calm     75% 0.00 in meteobridge W/m2
11:59 65.3 °F 57.2 °F 30.10 in Calm     75% 0.00 in meteobridge W/m2
12:04 65.5 °F 57.4 °F 30.10 in Calm     75% 0.00 in meteobridge W/m2
12:09 65.7 °F 57.6 °F 30.10 in Calm     75% 0.00 in meteobridge W/m2
12:14 66.0 °F 57.6 °F 30.11 in Calm     74% 0.00 in meteobridge W/m2
12:19 66.0 °F 57.2 °F 30.11 in Calm     73% 0.00 in meteobridge W/m2
12:23 65.5 °F 57.0 °F 30.11 in Calm     74% 0.00 in meteobridge W/m2
12:29 64.9 °F 56.8 °F 30.10 in Calm     75% 0.00 in meteobridge W/m2
12:34 65.1 °F 57.0 °F 30.10 in Calm     75% 0.00 in meteobridge W/m2
12:39 65.5 °F 57.0 °F 30.10 in Calm     74% 0.00 in meteobridge W/m2
12:44 65.8 °F 57.0 °F 30.09 in Calm     73% 0.00 in meteobridge W/m2
12:49 66.2 °F 57.7 °F 30.09 in Calm     74% 0.00 in meteobridge W/m2
12:54 66.6 °F 57.2 °F 30.09 in Calm     72% 0.00 in meteobridge W/m2
12:59 66.9 °F 57.6 °F 30.09 in Calm     72% 0.00 in meteobridge W/m2
13:04 67.3 °F 57.6 °F 30.09 in Calm     71% 0.00 in meteobridge W/m2
13:09 67.5 °F 57.7 °F 30.08 in Calm     71% 0.00 in meteobridge W/m2
13:14 67.6 °F 57.9 °F 30.08 in Calm     71% 0.00 in meteobridge W/m2
13:19 67.8 °F 58.1 °F 30.08 in Calm     71% 0.00 in meteobridge W/m2
13:24 68.0 °F 58.3 °F 30.07 in Calm     71% 0.00 in meteobridge W/m2
13:29 67.6 °F 58.3 °F 30.07 in Calm     72% 0.00 in meteobridge W/m2
13:34 67.6 °F 57.9 °F 30.07 in Calm     71% 0.00 in meteobridge W/m2
13:39 66.9 °F 57.9 °F 30.07 in Calm     73% 0.00 in meteobridge W/m2
13:44 67.1 °F 58.1 °F 30.07 in Calm     73% 0.00 in meteobridge W/m2
13:49 66.9 °F 57.9 °F 30.06 in Calm     73% 0.00 in meteobridge W/m2
13:54 66.7 °F 57.7 °F 30.06 in Calm     73% 0.00 in meteobridge W/m2
13:59 66.6 °F 58.1 °F 30.06 in Calm     74% 0.00 in meteobridge W/m2
14:04 66.6 °F 58.1 °F 30.06 in Calm     74% 0.00 in meteobridge W/m2
14:09 66.6 °F 58.1 °F 30.06 in Calm     74% 0.00 in meteobridge W/m2
14:14 66.6 °F 57.6 °F 30.05 in Calm     73% 0.00 in meteobridge W/m2
14:19 66.4 °F 57.4 °F 30.05 in Calm     73% 0.00 in meteobridge W/m2
14:24 65.8 °F 57.7 °F 30.05 in Calm     75% 0.00 in meteobridge W/m2
14:29 65.8 °F 57.7 °F 30.05 in Calm     75% 0.00 in meteobridge W/m2
14:34 65.8 °F 57.7 °F 30.04 in Calm     75% 0.00 in meteobridge W/m2
14:39 66.0 °F 57.6 °F 30.04 in Calm     74% 0.00 in meteobridge W/m2
14:44 66.4 °F 58.3 °F 30.04 in Calm     75% 0.00 in meteobridge W/m2
14:49 66.4 °F 57.9 °F 30.03 in Calm     74% 0.00 in meteobridge W/m2
14:54 66.4 °F 58.3 °F 30.03 in Calm     75% 0.00 in meteobridge W/m2
14:59 66.4 °F 58.3 °F 30.03 in Calm     75% 0.00 in meteobridge W/m2
15:04 66.6 °F 58.5 °F 30.02 in Calm     75% 0.00 in meteobridge W/m2
15:09 66.6 °F 58.5 °F 30.03 in Calm     75% 0.00 in meteobridge W/m2
15:14 66.7 °F 58.1 °F 30.02 in Calm     74% 0.00 in meteobridge W/m2
15:19 66.6 °F 58.1 °F 30.02 in Calm     74% 0.00 in meteobridge W/m2
15:24 66.4 °F 57.9 °F 30.02 in Calm     74% 0.00 in meteobridge W/m2
15:29 66.6 °F 58.5 °F 30.02 in Calm     75% 0.00 in meteobridge W/m2
15:34 66.6 °F 58.1 °F 30.02 in Calm     74% 0.00 in meteobridge W/m2
15:39 67.1 °F 58.8 °F 30.01 in Calm     75% 0.00 in meteobridge W/m2
15:44 67.8 °F 59.2 °F 30.02 in Calm     74% 0.00 in meteobridge W/m2
15:49 68.2 °F 59.5 °F 30.02 in Calm     74% 0.00 in meteobridge W/m2
15:54 68.4 °F 59.0 °F 30.02 in Calm     72% 0.00 in meteobridge W/m2
15:59 68.2 °F 58.8 °F 30.02 in Calm     72% 0.00 in meteobridge W/m2
16:04 67.8 °F 58.8 °F 30.02 in Calm     73% 0.00 in meteobridge W/m2
16:09 67.5 °F 58.5 °F 30.01 in Calm     73% 0.00 in meteobridge W/m2
16:14 67.1 °F 58.5 °F 30.01 in Calm     74% 0.00 in meteobridge W/m2
16:19 66.7 °F 58.1 °F 30.01 in Calm     74% 0.00 in meteobridge W/m2
16:24 66.6 °F 58.5 °F 30.01 in Calm     75% 0.00 in meteobridge W/m2
16:29 66.4 °F 58.3 °F 30.01 in Calm     75% 0.00 in meteobridge W/m2
16:34 66.2 °F 58.5 °F 30.01 in Calm     76% 0.00 in meteobridge W/m2
16:39 66.0 °F 58.3 °F 30.01 in Calm     76% 0.00 in meteobridge W/m2
16:44 66.0 °F 58.6 °F 30.01 in Calm     77% 0.00 in meteobridge W/m2
16:49 65.8 °F 58.5 °F 30.01 in Calm     77% 0.00 in meteobridge W/m2
16:54 65.8 °F 58.8 °F 30.01 in Calm     78% 0.00 in meteobridge W/m2
16:59 65.8 °F 58.8 °F 30.01 in Calm     78% 0.00 in meteobridge W/m2
17:04 65.8 °F 58.8 °F 30.01 in Calm     78% 0.00 in meteobridge W/m2
17:09 66.4 °F 59.0 °F 30.01 in Calm     77% 0.00 in meteobridge W/m2
17:14 66.6 °F 59.2 °F 30.01 in Calm     77% 0.00 in meteobridge W/m2
17:19 66.7 °F 59.0 °F 30.02 in Calm     76% 0.00 in meteobridge W/m2
17:24 66.9 °F 59.2 °F 30.01 in Calm     76% 0.00 in meteobridge W/m2
17:29 66.7 °F 59.0 °F 30.01 in Calm     76% 0.00 in meteobridge W/m2
17:34 66.4 °F 58.6 °F 30.01 in Calm     76% 0.00 in meteobridge W/m2
17:39 66.4 °F 59.0 °F 30.01 in Calm     77% 0.00 in meteobridge W/m2
17:44 65.8 °F 58.8 °F 30.01 in Calm     78% 0.00 in meteobridge W/m2
17:49 65.7 °F 58.6 °F 30.01 in Calm     78% 0.00 in meteobridge W/m2
17:54 65.7 °F 58.6 °F 30.01 in Calm     78% 0.00 in meteobridge W/m2
17:59 65.7 °F 58.6 °F 30.01 in Calm     78% 0.00 in meteobridge W/m2
18:04 65.7 °F 59.0 °F 30.01 in Calm     79% 0.00 in meteobridge W/m2
18:09 66.7 °F 59.7 °F 30.01 in Calm     78% 0.00 in meteobridge W/m2
18:14 67.6 °F 59.7 °F 30.01 in Calm     76% 0.00 in meteobridge W/m2
18:19 68.2 °F 60.3 °F 30.01 in Calm     76% 0.00 in meteobridge W/m2
18:24 68.7 °F 60.1 °F 30.00 in Calm     74% 0.00 in meteobridge W/m2
18:29 69.1 °F 60.1 °F 30.00 in Calm     73% 0.00 in meteobridge W/m2
18:34 69.3 °F 60.3 °F 30.00 in Calm     73% 0.00 in meteobridge W/m2
18:39 69.4 °F 60.4 °F 30.00 in Calm     73% 0.00 in meteobridge W/m2
18:44 69.4 °F 60.4 °F 30.01 in Calm     73% 0.00 in meteobridge W/m2
18:49 69.4 °F 60.4 °F 30.01 in Calm     73% 0.00 in meteobridge W/m2
18:54 69.3 °F 60.3 °F 30.01 in Calm     73% 0.00 in meteobridge W/m2
18:59 69.3 °F 60.3 °F 30.01 in Calm     73% 0.00 in meteobridge W/m2
19:04 69.3 °F 60.6 °F 30.01 in Calm     74% 0.00 in meteobridge W/m2
19:09 68.7 °F 61.2 °F 30.01 in Calm     77% 0.00 in meteobridge W/m2
19:14 68.4 °F 60.4 °F 30.01 in Calm     76% 0.00 in meteobridge W/m2
19:19 68.2 °F 60.3 °F 30.01 in Calm     76% 0.00 in meteobridge W/m2
19:24 68.2 °F 60.3 °F 30.01 in Calm     76% 0.00 in meteobridge W/m2
19:29 68.4 °F 60.4 °F 30.02 in Calm     76% 0.00 in meteobridge W/m2
19:34 68.5 °F 60.3 °F 30.02 in Calm     75% 0.00 in meteobridge W/m2
19:39 68.5 °F 60.6 °F 30.02 in Calm     76% 0.00 in meteobridge W/m2
19:44 68.2 °F 61.3 °F 30.02 in Calm     79% 0.01 in meteobridge W/m2
19:49 67.3 °F 61.2 °F 30.02 in Calm     81% 0.01 in meteobridge W/m2
19:54 66.0 °F 61.3 °F 30.01 in Calm     85% 0.01 in meteobridge W/m2
19:59 65.5 °F 61.2 °F 30.01 in Calm     86% 0.02 in meteobridge W/m2
20:04 65.1 °F 61.5 °F 30.02 in Calm     88% 0.03 in meteobridge W/m2
20:09 64.6 °F 61.5 °F 30.02 in Calm     90% 0.05 in meteobridge W/m2
20:14 64.2 °F 61.5 °F 30.03 in Calm     91% 0.06 in meteobridge W/m2
20:19 64.0 °F 61.3 °F 30.03 in Calm     91% 0.07 in meteobridge W/m2
20:24 63.9 °F 61.5 °F 30.04 in Calm     92% 0.09 in meteobridge W/m2
20:29 63.7 °F 61.7 °F 30.04 in Calm     93% 0.10 in meteobridge W/m2
20:34 63.3 °F 61.5 °F 30.05 in Calm     94% 0.11 in meteobridge W/m2
20:39 63.1 °F 61.3 °F 30.05 in Calm     94% 0.13 in meteobridge W/m2
20:44 63.0 °F 61.2 °F 30.05 in Calm     94% 0.14 in meteobridge W/m2
20:49 62.8 °F 61.3 °F 30.05 in Calm     95% 0.15 in meteobridge W/m2
20:53 62.8 °F 61.3 °F 30.04 in Calm     95% 0.16 in meteobridge W/m2
20:59 62.4 °F 61.0 °F 30.05 in Calm     95% 0.18 in meteobridge W/m2
21:04 62.2 °F 61.2 °F 30.06 in Calm     96% 0.25 in meteobridge W/m2
21:09 62.2 °F 61.2 °F 30.06 in Calm     96% 0.33 in meteobridge W/m2
21:14 62.1 °F 61.0 °F 30.07 in Calm     96% 0.40 in meteobridge W/m2
21:19 62.2 °F 61.3 °F 30.07 in Calm     97% 0.50 in meteobridge W/m2
21:24 62.1 °F 61.2 °F 30.07 in Calm     97% 0.55 in meteobridge W/m2
21:29 62.1 °F 61.2 °F 30.01 in Calm     97% 0.62 in meteobridge W/m2
21:34 62.1 °F 61.2 °F 30.02 in Calm     97% 0.63 in meteobridge W/m2
21:39 62.1 °F 61.2 °F 30.02 in Calm     97% 0.61 in meteobridge W/m2
21:44 62.1 °F 61.0 °F 30.03 in Calm     96% 0.60 in meteobridge W/m2
21:49 62.1 °F 61.0 °F 30.03 in Calm     96% 0.59 in meteobridge W/m2
21:54 62.1 °F 61.0 °F 30.03 in Calm     96% 0.58 in meteobridge W/m2
21:59 62.1 °F 61.0 °F 30.03 in Calm     96% 0.56 in meteobridge W/m2
22:04 62.1 °F 61.0 °F 30.03 in Calm     96% 0.46 in meteobridge W/m2
22:09 61.9 °F 60.8 °F 30.03 in Calm     96% 0.38 in meteobridge W/m2
22:14 61.9 °F 60.8 °F 30.02 in Calm     96% 0.29 in meteobridge W/m2
22:19 61.9 °F 60.8 °F 30.02 in Calm     96% 0.18 in meteobridge W/m2
22:24 61.5 °F 60.4 °F 30.02 in Calm     96% 0.11 in meteobridge W/m2
22:29 61.5 °F 60.6 °F 30.01 in Calm     97% 0.03 in meteobridge W/m2
22:34 61.5 °F 60.6 °F 30.02 in Calm     97% 0.01 in meteobridge W/m2
22:39 61.7 °F 60.8 °F 30.01 in Calm     97% 0.01 in meteobridge W/m2
22:44 61.5 °F 60.6 °F 30.01 in Calm     97% 0.00 in meteobridge W/m2
22:49 61.3 °F 60.3 °F 30.01 in Calm     96% 0.00 in meteobridge W/m2
22:54 61.3 °F 60.4 °F 30.01 in Calm     97% 0.00 in meteobridge W/m2
22:59 61.3 °F 60.4 °F 30.01 in Calm     97% 0.00 in meteobridge W/m2
23:04 61.2 °F 60.3 °F 30.00 in Calm     97% 0.00 in meteobridge W/m2
23:09 61.3 °F 60.4 °F 30.00 in Calm     97% 0.00 in meteobridge W/m2
23:14 61.3 °F 60.4 °F 30.01 in Calm     97% 0.00 in meteobridge W/m2
23:19 61.3 °F 60.4 °F 30.01 in Calm     97% 0.00 in meteobridge W/m2
23:24 61.3 °F 60.4 °F 30.01 in Calm     97% 0.00 in meteobridge W/m2
23:29 61.3 °F 60.8 °F 30.01 in Calm     98% 0.00 in meteobridge W/m2
23:34 61.3 °F 60.8 °F 30.01 in Calm     98% 0.00 in meteobridge W/m2
23:39 61.5 °F 61.0 °F 30.00 in Calm     98% 0.00 in meteobridge W/m2
23:44 61.9 °F 61.3 °F 30.00 in Calm     98% 0.00 in meteobridge W/m2
23:49 62.1 °F 61.5 °F 30.00 in Calm     98% 0.00 in meteobridge W/m2
23:54 62.4 °F 61.5 °F 30.00 in Calm     97% 0.01 in meteobridge W/m2
23:59 62.8 °F 61.7 °F 30.00 in Calm     96% 0.01 in meteobridge W/m2
EllijayWeather
Compliments of Weather Underground - 2.5 mb